Home > Weather > Viersen > Past weeks

Flag for Germany Weather for the Past 2 Weeks in Viersen, North Rhine-Westphalia, Germany

Now
46 °F

Light rain. Passing clouds.


Feels Like: 45 °F
Forecast: 40 / 51 °F
Wind: 3 mph from North

Location: Monchengladbach Airport

Current Time: Apr 29, 2016 at 7:51:22 PM

Latest Report: Apr 29, 2016 at 7:20 PM


Visibility: N/A

Pressure: 29.98 "Hg

Humidity: 93%

Dew Point: 45 °F

Location of ViersenLocation

Historic Weather in Viersen — Graph

°F

Viersen Temperature Yesterday

Maximum temperature yesterday: 52 °F (at 3:50 PM)
Minimum temperature yesterday: 39 °F (at 7:50 AM)
Average temperature yesterday: 46 °F

High & Low Weather Summary for the Past Weeks

 TemperatureHumidityPressure
High66 °F (Apr 21, 4:20 PM)94% (Apr 15, 7:50 AM)30.48 "Hg (Apr 15, 7:50 AM)
Low37 °F (Apr 18, 7:50 AM)28% (Apr 21, 5:20 PM)29.50 "Hg (Apr 26, 12:20 PM)
Average50 °F63%29.94 "Hg
* Reported Apr 14 6:20 PM — Apr 29 6:20 PM, Viersen, Weather by CustomWeather, © 2016

Note: Actual official high and low records may vary slightly from our data, if they occured in-between our weather recording intervals... More about our weather records

Advertising

Viersen Weather History for the Previous 24 Hours

Scroll right to see more
 ConditionsComfort  
Time TempWeatherWind HumidityBarometerVisibility
6:20 PM
Fri, Apr 29
46 °FLight rain. Partly cloudy.6 mph87%29.98 "HgN/A
5:50 PM46 °FLight rain. Clear.6 mph87%29.98 "HgN/A
5:20 PM48 °FPassing clouds.10 mph76%29.98 "HgN/A
4:50 PM48 °FClear.9 mph71%29.95 "Hg10 mi
4:20 PM48 °FClear.7 mph76%29.95 "Hg10 mi
3:50 PM48 °FPassing clouds.6 mph82%29.95 "HgN/A
3:20 PM48 °FPassing clouds.10 mph76%29.95 "HgN/A
2:50 PM50 °FPassing clouds.8 mph76%29.95 "HgN/A
2:20 PM48 °FPassing clouds.7 mph82%29.95 "HgN/A
1:50 PM48 °FPassing clouds.12 mph82%29.95 "HgN/A
1:20 PM54 °FPassing clouds.10 mph54%29.92 "HgN/A
12:50 PM54 °FPassing clouds.13 mph54%29.92 "HgN/A
12:20 PM54 °FPartly sunny.14 mph54%29.92 "HgN/A
11:50 AM54 °FPassing clouds.12 mph58%29.92 "HgN/A
11:20 AM52 °FPassing clouds.12 mph58%29.92 "HgN/A
10:50 AM50 °FPassing clouds.10 mph58%29.92 "HgN/A
10:20 AM50 °FPartly sunny.12 mph62%29.92 "HgN/A
9:50 AM48 °FScattered clouds.12 mph66%29.92 "HgN/A
9:20 AM48 °FScattered clouds.10 mph66%29.92 "HgN/A
8:50 AM46 °FSunny.8 mph71%29.92 "Hg10 mi
8:20 AM43 °FPassing clouds.7 mph76%29.92 "HgN/A
7:50 AM41 °FPassing clouds.7 mph81%29.92 "HgN/A
7:50 PM
Thu, Apr 28
45 °FPassing clouds.6 mph76%29.98 "HgN/A
7:20 PM45 °FScattered showers. Passing clouds.3 mph81%29.98 "HgN/A
Weather by CustomWeather, © 2016

See weather overviewHow to use our weather pages